FW5912 Weather Reports


time (UTC)temp
C
wind
direction
speed
KPH
gust
KPH
rain 1hr
cm
rain 24hr
cm
rain mn
cm
humidity
%
barometer
mb
20260504191601 25 143 11.3 22.5 0.00 0.00 0.00 65 1016.1
20260504190115 25 188 14.5 24.1 0.00 0.00 0.00 66 1016.1
20260504184626 25 145 12.9 22.5 0.00 0.00 0.00 64 1016.2
20260504183112 25 151 12.9 24.1 0.00 0.00 0.00 66 1016.4
20260504181557 25 190 11.3 24.1 0.00 0.00 0.00 66 1016.5
20260504180055 25 142 16.1 25.7 0.00 0.00 0.00 66 1016.6
20260504174555 25 158 12.9 25.7 0.00 0.00 0.00 64 1016.8
20260504173056 25 192 12.9 22.5 0.00 0.00 0.00 65 1017.1
20260504171602 25 204 14.5 24.1 0.00 0.00 0.00 66 1017.1
20260504160105 24 169 16.1 24.1 0.00 0.00 0.00 65 1017.8
20260504140107 23 137 16.1 22.5 0.00 0.00 0.00 68 1017.6
20260504120108 21 188 16.1 24.1 0.00 0.00 0.00 68 1017.4
20260504110104 21 126 14.5 22.5 0.00 0.00 0.00 62 1017.2
20260504100105 21 159 11.3 24.1 0.00 0.00 0.00 58 1017.7
20260504090123 21 131 16.1 27.4 0.00 0.00 0.00 57 1017.6
20260504081552 21 145 12.9 24.1 0.00 0.00 0.00 57 1018.0
20260504060106 21 120 19.3 30.6 0.00 0.00 0.00 55 1019.6
20260504050107 21 105 14.5 22.5 0.00 0.00 0.00 55 1020.1
20260504044554 21 126 14.5 22.5 0.00 0.00 0.00 54 1020.3
20260504043057 21 159 12.9 24.1 0.00 0.00 0.00 54 1020.2
20260504041556 21 122 14.5 24.1 0.00 0.00 0.00 53 1019.9
20260504034555 21 123 12.9 20.9 0.00 0.00 0.00 54 1020.1
20260504033106 21 113 9.7 17.7 0.00 0.00 0.00 53 1020.1
20260504031602 21 124 11.3 20.9 0.00 0.00 0.00 53 1020.0
20260504030056 21 123 11.3 19.3 0.00 0.00 0.00 52 1020.1
20260504024600 21 134 12.9 19.3 0.00 0.00 0.00 53 1020.1
20260504023054 21 126 11.3 19.3 0.00 0.00 0.00 51 1020.1
20260504021556 21 133 11.3 17.7 0.00 0.00 0.00 52 1020.1
20260504020054 21 126 9.7 16.1 0.00 0.00 0.00 52 1019.9
20260504014559 21 140 9.7 16.1 0.00 0.00 0.00 51 1020.2
20260504013106 21 106 9.7 17.7 0.00 0.00 0.00 52 1020.0
20260504011554 21 132 11.3 17.7 0.00 0.00 0.00 51 1020.1
20260504010057 21 108 9.7 16.1 0.00 0.00 0.00 52 1020.1
20260504004613 22 134 9.7 14.5 0.00 0.00 0.00 50 1020.1
20260504003057 22 134 8.0 16.1 0.00 0.00 0.00 50 1019.8
20260504001558 22 119 8.0 16.1 0.00 0.00 0.00 51 1020.1
20260504000056 22 138 9.7 17.7 0.00 0.00 0.00 48 1020.0
20260503234555 22 131 11.3 16.1 0.00 0.00 0.00 48 1020.3
20260503233102 22 136 6.4 16.1 0.00 0.00 0.00 48 1020.3
20260503231557 23 126 8.0 17.7 0.00 0.00 0.00 50 1020.4
20260503230059 23 109 6.4 19.3 0.00 0.00 0.00 50 1020.6
20260503224558 23 126 11.3 19.3 0.00 0.00 0.00 49 1020.8
20260503223100 23 142 11.3 17.7 0.00 0.00 0.00 49 1020.9
20260503221558 23 137 11.3 20.9 0.00 0.00 0.00 49 1021.0
20260503214601 23 152 8.0 17.7 0.00 0.00 0.00 46 1021.1
20260503213055 23 123 9.7 19.3 0.00 0.00 0.00 44 1021.3
20260503211604 23 129 8.0 14.5 0.00 0.00 0.00 46 1021.3
20260503210055 23 136 9.7 19.3 0.00 0.00 0.00 45 1021.6
20260503204555 23 108 11.3 19.3 0.00 0.00 0.00 47 1021.7
20260503203055 23 124 9.7 19.3 0.00 0.00 0.00 46 1022.1
20260503201558 23 99 11.3 19.3 0.00 0.00 0.00 44 1022.3
20260503200056 23 126 9.7 17.7 0.00 0.00 0.00 45 1022.5
20260503194557 23 115 11.3 17.7 0.00 0.00 0.00 45 1022.7
20260503193100 23 144 11.3 22.5 0.00 0.00 0.00 44 1023.0